This demonstration page uses our WeatherBlox Daily Observations layout. Learn more.

Left ArrowRight Arrow

31.84235, -102.49876

Hourly Observations for March 31, 2018

Temp ( °F °C ) Dew Point ( °F °C ) Humidity (%) Winds ( mph kmh ) Pressure ( in mb ) Visibility ( mi km ) Precip ( " mm )
12:53 am 00:53 Clear 63 17.2 45 7.2 52 52 S 14 22 29.98 1015 10 16 0.00 0.00
1:53 am 01:53 Clear 62 16.7 48 8.9 60 60 S 14 22 29.98 1015 10 16 0.00 0.00
2:53 am 02:53 Clear 61 16.1 50 10 67 67 S 16 26 29.98 1015 10 16 0.00 0.00
3:53 am 03:53 Clear 61 16.1 51 10.6 70 70 S 18 30 29.96 1014 10 16 0.00 0.00
4:53 am 04:53 Clear 59 15 51 10.6 75 75 S 21 33 29.93 1014 10 16 0.00 0.00
5:53 am 05:53 Clear 58 14.4 53 11.7 84 84 S 21 33 29.92 1013 10 16 0.00 0.00
6:53 am 06:53 Clear 57 13.9 53 11.7 87 87 SSW 21 33 29.93 1014 10 16 0.00 0.00
7:53 am 07:53 Sunny 56 13.3 53 11.7 90 90 S 18 30 29.95 1014 9 14 0.00 0.00
8:16 am 08:16 Mostly Sunny 57 13.9 53 11.7 87 87 S 17 28 30.03 1017 8 13 0.00 0.00
8:53 am 08:53 Sunny 59 15 54 12.2 83 83 SSW 16 26 29.96 1015 10 16 0.00 0.00
9:53 am 09:53 Mostly Sunny 64 17.8 52 11.1 65 65 SSW 17 28 29.97 1015 10 16 0.00 0.00
10:53 am 10:53 Sunny 71 21.7 49 9.4 46 46 SSW 18 30 29.96 1015 10 16 0.00 0.00
11:53 am 11:53 Sunny 76 24.4 45 7.2 33 33 SW 16 26 29.95 1014 10 16 0.00 0.00
12:53 pm 12:53 Sunny 81 27.2 38 3.3 21 21 WSW 16 26 29.92 1013 10 16 0.00 0.00
1:53 pm 13:53 Sunny 83 28.3 32 0 16 16 WSW 16 26 29.90 1013 10 16 0.00 0.00
2:53 pm 14:53 Sunny 86 30 27 -2.8 12 12 WSW 22 35 29.87 1012 10 16 0.00 0.00
3:53 pm 15:53 Sunny 87 30.6 22 -5.6 9 9 W 15 24 29.84 1011 10 16 0.00 0.00
4:24 pm 16:24 Sunny 87 30.6 18 -7.8 8 8 WNW 12 19 29.71 1006 10 16 0.00 0.00
4:53 pm 16:53 Sunny 88 31.1 18 -7.8 7 7 WNW 16 26 29.82 1010 10 16 0.00 0.00
5:53 pm 17:53 Sunny 86 30 6 -14.4 5 5 W 16 26 29.81 1010 10 16 0.00 0.00
6:53 pm 18:53 Sunny 85 29.4 10 -12.2 6 6 W 14 22 29.82 1010 10 16 0.00 0.00
7:29 pm 19:29 Partly Cloudy 82 27.8 16 -8.9 8 8 WNW 7 11 29.74 1007 10 16 0.00 0.00
7:53 pm 19:53 Sunny 79 26.1 20 -6.7 11 11 NNW 6 9 29.83 1010 10 16 0.00 0.00
8:53 pm 20:53 Clear 76 24.4 24 -4.4 14 14 N 5 7 29.84 1010 10 16 0.00 0.00
9:53 pm 21:53 Clear 75 23.9 22 -5.6 14 14 NNE 5 7 29.85 1011 10 16 0.00 0.00
10:53 pm 22:53 Clear 71 21.7 43 6.1 36 36 S 9 15 29.87 1012 10 16 0.00 0.00
11:53 pm 23:53 Clear 69 20.6 46 7.8 44 44 S 10 17 29.86 1011 10 16 0.00 0.00

Powered by AerisWeather